Weather History for Cincinnati, OH

Change the Weather History Date:

Sunday, February 16, 2014

  Actual Average Record
Temperature  
Mean Temperature 26 °F -  
Max Temperature 30 °F 42 °F 68 °F (2011)
Min Temperature 21 °F 25 °F 1 °F (1991)
Degree Days  
Heating Degree Days 40    
Moisture  
Dew Point 19 °F    
Average Humidity 78    
Maximum Humidity 93    
Minimum Humidity 63    
Precipitation  
Precipitation 0.04 in - - ()
Sea Level Pressure  
Sea Level Pressure 30.14 in    
Wind  
Wind Speed 5 mph (WSW)    
Max Wind Speed 14 mph    
Max Gust Speed -    
Visibility 6 miles    
Events Snow    
Averages and records for this station are not official NWS values.
T = Trace of Precipitation, MM = Missing Value Source: NWS Daily Summary

Daily Weather History Graph

Daily Weather History Graph

Search for Another Location

Airport:

Trip Planner

Search our weather history database for the weather conditions in past years. The results will help you decide how hot, cold, wet, or windy it might be!

Date:

Astronomy

Feb. 16, 2014 Rise Set
Actual Time 7:27 AM EST 6:16 PM EST
Civil Twilight 7:00 AM EST 6:43 PM EST
Nautical Twilight 6:29 AM EST 7:14 PM EST
Astronomical Twilight 5:58 AM EST 7:45 PM EST
Moon 8:10 PM EST (2/16) 7:58 AM EST (2/16)
Length of Visible Light 11h 42m
Length of Day
10h 48m
Full, 97% of the Moon is Illuminated
Feb 16
Full
Feb 22
Last Quarter
Mar 1
New
Mar 8
First Quarter
Mar 16
Full

Hourly Weather History & Observations

Time (EST) Temp. Windchill Dew Point Humidity Pressure Visibility Wind Dir Wind Speed Gust Speed Precip Events Conditions
12:37 AM 23.0 °F 17.0 °F 18.0 °F 81% 30.08 in 2.5 mi SSW 4.6 mph - 0.00 in Snow Light Snow
12:46 AM 21.9 °F 15.7 °F 18.0 °F 85% 30.08 in 1.8 mi SSW 4.6 mph - 0.00 in Snow Light Snow
12:53 AM 21.9 °F 14.5 °F 19.0 °F 89% 30.09 in 1.8 mi South 5.8 mph - 0.00 in Snow Light Snow
1:03 AM 21.9 °F 17.2 °F 19.0 °F 89% 30.07 in 2.0 mi South 3.5 mph - 0.00 in Snow Light Snow
1:13 AM 21.9 °F 17.2 °F 19.0 °F 89% 30.07 in 1.5 mi South 3.5 mph - 0.00 in Snow Light Snow
1:50 AM 21.2 °F 16.4 °F 19.4 °F 93% 30.07 in 0.8 mi WSW 3.5 mph - 0.02 in Snow Light Snow
1:53 AM 21.9 °F 17.2 °F 19.9 °F 92% 30.09 in 0.8 mi WSW 3.5 mph - 0.02 in Snow Light Snow
2:01 AM 21.9 °F 17.2 °F 19.9 °F 92% 30.07 in 1.2 mi SW 3.5 mph - 0.01 in Snow Light Snow
2:36 AM 23.0 °F - 19.9 °F 88% 30.05 in 2.0 mi Calm Calm - 0.01 in Snow Light Snow
2:45 AM 23.0 °F - 19.9 °F 88% 30.06 in 3.0 mi Calm Calm - 0.01 in Snow Light Snow
2:53 AM 21.9 °F 17.2 °F 19.9 °F 92% 30.08 in 3.0 mi SSW 3.5 mph - 0.01 in Snow Light Snow
3:11 AM 23.0 °F - 21.0 °F 92% 30.04 in 2.0 mi Calm Calm - 0.00 in Snow Light Snow
3:29 AM 23.0 °F 17.0 °F 19.9 °F 88% 30.02 in 5.0 mi SSW 4.6 mph - 0.01 in Snow Light Snow
3:53 AM 23.0 °F 17.0 °F 19.9 °F 88% 30.03 in 7.0 mi SSW 4.6 mph - 0.01 in   Overcast
4:53 AM 24.1 °F 18.2 °F 21.0 °F 88% 30.03 in 7.0 mi South 4.6 mph - N/A   Overcast
5:53 AM 24.1 °F 18.2 °F 21.0 °F 88% 30.02 in 8.0 mi South 4.6 mph - N/A   Overcast
6:53 AM 24.1 °F 17.0 °F 21.0 °F 88% 30.03 in 7.0 mi SSW 5.8 mph - N/A   Overcast
7:53 AM 25.0 °F 20.7 °F 21.9 °F 88% 30.03 in 6.0 mi SSW 3.5 mph - N/A   Overcast
8:53 AM 26.1 °F 19.4 °F 23.0 °F 88% 30.06 in 6.0 mi South 5.8 mph - N/A   Overcast
9:53 AM 28.9 °F 23.9 °F 23.0 °F 78% 30.06 in 7.0 mi WSW 4.6 mph - N/A   Overcast
10:53 AM 30.0 °F 19.5 °F 21.9 °F 72% 30.09 in 8.0 mi West 13.8 mph - N/A   Overcast
11:53 AM 30.9 °F 22.2 °F 21.9 °F 69% 30.11 in 8.0 mi West 10.4 mph - N/A   Overcast
11:56 AM 30.9 °F 22.8 °F 23.0 °F 72% 30.09 in 8.0 mi West 9.2 mph - N/A   Overcast
12:53 PM 30.9 °F 22.8 °F 21.9 °F 69% 30.12 in 7.0 mi WNW 9.2 mph - N/A   Overcast
1:53 PM 30.9 °F 21.2 °F 21.9 °F 69% 30.13 in 8.0 mi West 12.7 mph - N/A   Overcast
2:53 PM 30.9 °F 22.8 °F 21.0 °F 67% 30.16 in 8.0 mi WNW 9.2 mph - N/A   Overcast
3:53 PM 30.0 °F 22.4 °F 19.9 °F 66% 30.19 in 9.0 mi NW 8.1 mph - N/A   Overcast
4:53 PM 28.9 °F 21.1 °F 18.0 °F 64% 30.22 in 10.0 mi NNW 8.1 mph - N/A   Overcast
5:53 PM 28.0 °F 18.1 °F 17.1 °F 63% 30.25 in 10.0 mi North 11.5 mph - N/A   Overcast
6:00 PM 28.0 °F 18.6 °F 17.1 °F 63% 30.24 in 10.0 mi North 10.4 mph - N/A   Overcast
6:26 PM 27.0 °F 19.5 °F 16.0 °F 63% 30.26 in 10.0 mi North 6.9 mph - N/A   Overcast
6:53 PM 27.0 °F 17.3 °F 16.0 °F 63% 30.30 in 10.0 mi North 10.4 mph - N/A   Overcast
7:53 PM 26.1 °F 17.6 °F 16.0 °F 66% 30.34 in 9.0 mi North 8.1 mph - N/A   Overcast
8:53 PM 25.0 °F 19.3 °F 15.1 °F 66% 30.35 in 10.0 mi North 4.6 mph - N/A   Overcast
9:53 PM 25.0 °F 19.3 °F 15.1 °F 66% 30.35 in 10.0 mi ENE 4.6 mph - N/A   Overcast
10:53 PM 24.1 °F 19.7 °F 14.0 °F 65% 30.35 in 10.0 mi East 3.5 mph - N/A   Overcast
11:48 PM 23.0 °F 15.8 °F 12.2 °F 63% 30.33 in 10.0 mi East 5.8 mph - N/A   Scattered Clouds
11:53 PM 23.0 °F 17.0 °F 12.9 °F 65% 30.34 in 10.0 mi East 4.6 mph - N/A   Partly Cloudy